STARLINK-36952, 68062

Orbit data source: Space-Track

STARLINK-36952, 68062 is a payload satellite owned by SpaceX/Seattle (US) in LEO that was launched on Mon, 02 Mar 2026 UTC via an FALCON 9 launch vehicle from the Air Force Eastern Test Range (AFETR). Payload-class satellites include a variety of spacecraft equipped with specific instruments for various scientific and technological missions. These include communications satellites like Starlink; space stations such as the ISS; scientific satellites like the Hubble; Earth observation satellites from companies like Planet Labs, Umbra, and HawkEye 360; GPS; miniature CubeSats for education and research; and military/defense satellites.

Loading next visibility...
Identifier
68062, 2026-041Y
Orbit
LEO
Country
Flag of USUS
Related business
Manufacturer
SpaceX/Seattle
Mission
Operational Commercial Communications
Bus & Motor
STARLINK V2MO, Unknown motor
Mass
575 kg wet, ~530 kg dry
Launch date (UTC)
2026-03-02 (2 months ago)
Launch vehicle
FALCON 9
Launch site
Air Force Eastern Test Range (AFETR)
Object type
Payload
Rocket body
Debris
Shape & HBR
Box + 2 Pan, 17.7 m
Radar Cross Section
36.964 m²

Expand to show TLE details & history
Last TLE update: 13 hours ago

TLE from 13 hours ago
0 STARLINK-36952
1 68062U 26041Y   26118.87101089  .00004354  00000-0  12208-3 0  9999
2 68062  53.1608 176.6258 0001000  83.2260 276.8858 15.38758375  9076
Epoch: 2026-04-28T20:54Z
TLE epoch observation values (Epoch: 2026-04-28T20:54:15.340Z)
Latitude
-0.00007°
Longitude
6.22172°
Altitude
450.601 km
Speed
7.643 km/s
True Right ascension
11h 46m 30s
True Declination
0° 00' 00"
Sunlit
Object was in full shadow at epoch
Visualization orbit readout
Latitude
Unknown
Longitude
Unknown
Altitude
Unknown
Speed
Unknown
Apparent Right ascension
Unknown
Apparent Declination
Unknown
Sunlit
N/A
Visualization observer readout
Local Sidereal Time
17:10:50
Azimuth
Unknown
Elevation
Unknown
Doppler factor
Unknown
Orbital elements
Apogee altitude
450.72 km
Perigee altitude
449.354 km
Semi-major axis
6,828.174 km
Eccentricity
0.0001
Inclination
53.1608°
RAAN
176.6258°
Arg. of periapsis
83.226°
True anomaly
276.87442°
Mean anomaly
276.8858°
Eccentric anomaly
276.88011°
Mean motion
3.84668 °/min
Orbital period
93.59 mins
BSTAR
0.00012208
Loading maneuver chart data...
Computing Atmospheric mass density...
Loading historical data...
Loading historical data...
Loading historical data...
Loading historical data...
Loading historical data...
Loading historical data...
Loading historical data...

Documentation

Showing up to 5 results
|